Location: Tierra del Sol
(32.6128°N, 116.3319°W)
Time: 23:37:00
(UTC-07:00)

Vanguard 1 Rocket - All Passes

Search period start: 20 October 2017 00:00
Search period end: 30 October 2017 00:00
Orbit: 655 x 4222 km, 34.3° (Epoch: 20 October)

Date Brightness Start Highest point End Pass type
(mag) Time Alt. Az. Time Alt. Az. Time Alt. Az.
20 Oct - 03:43:02 10° S 03:50:21 15° SSE 03:55:51 10° ESE visible
20 Oct - 06:07:39 10° SW 06:17:53 41° SSE 06:23:43 10° E visible
20 Oct - 08:36:26 10° WSW 08:43:26 87° NNW 08:48:02 10° ENE daylight
20 Oct - 11:03:43 10° WNW 11:08:22 85° N 11:13:02 10° E daylight
20 Oct - 13:29:00 10° W 13:33:06 30° SSW 13:38:45 10° SE daylight
21 Oct - 04:54:51 10° SSW 05:06:10 31° SSE 05:12:52 10° E visible
21 Oct - 07:23:26 10° WSW 07:32:31 72° SSE 07:37:43 10° E daylight
21 Oct - 09:52:09 10° W 09:57:41 73° N 10:02:04 10° E daylight
21 Oct - 12:18:08 10° W 12:22:24 49° SSW 12:27:32 10° SE daylight
21 Oct - 14:45:14 10° SW 14:47:39 12° SSW 14:50:31 10° S daylight
22 Oct - 03:42:39 10° SSW 03:53:53 23° SSE 04:01:13 10° ESE visible
22 Oct - 06:09:59 10° SW 06:21:18 54° SSE 06:27:23 10° E visible
22 Oct - 08:39:44 10° W 08:46:52 78° N 08:51:30 10° E daylight
22 Oct - 11:07:07 10° WNW 11:11:49 79° SSW 11:16:24 10° ESE daylight
22 Oct - 13:33:02 10° WSW 13:36:30 20° SSW 13:40:54 10° SSE daylight
23 Oct - 02:32:00 10° S 02:41:01 16° SSE 02:47:49 10° ESE visible
23 Oct - 04:56:27 10° SW 05:09:36 41° SSE 05:16:47 10° E visible
23 Oct - 07:26:27 10° WSW 07:35:54 86° SSE 07:41:12 10° ENE daylight
23 Oct - 09:55:32 10° W 10:01:10 79° N 10:05:33 10° E daylight
23 Oct - 12:21:45 10° W 12:25:44 34° SSW 12:30:23 10° SE daylight
24 Oct - 03:43:18 10° SSW 03:57:21 31° SSE 04:05:38 10° E visible
24 Oct - 06:12:35 10° WSW 06:24:39 68° SSE 06:30:55 10° E visible
24 Oct - 08:43:03 10° W 08:50:20 75° N 08:55:00 10° E daylight
24 Oct - 11:10:32 10° W 11:15:13 59° SSW 11:19:41 10° ESE daylight
24 Oct - 13:37:55 10° SW 13:39:54 12° SSW 13:42:06 10° S daylight
25 Oct - 02:31:06 10° SSW 02:44:30 23° SSE 02:53:27 10° ESE visible
25 Oct - 04:58:27 10° SW 05:12:58 52° SSE 05:20:29 10° E visible
25 Oct - 07:29:37 10° W 07:39:18 85° N 07:44:41 10° E daylight
25 Oct - 09:58:52 10° WNW 10:04:37 90° S 10:09:01 10° ESE daylight
25 Oct - 12:25:35 10° W 12:29:04 22° SSW 12:32:55 10° SSE daylight
26 Oct - 01:21:08 10° S 01:31:05 15° SE 01:38:55 10° ESE visible
26 Oct - 03:44:32 10° SW 04:00:43 40° SSE 04:09:38 10° E visible
26 Oct - 06:15:23 10° WSW 06:27:59 80° SSE 06:34:25 10° ENE visible
26 Oct - 08:46:22 10° W 08:53:49 77° N 08:58:31 10° E daylight
26 Oct - 11:14:00 10° W 11:18:32 42° SSW 11:22:46 10° SE daylight
27 Oct - 02:31:21 10° SSW 02:47:52 31° SSE 02:58:01 10° E visible
27 Oct - 05:00:44 10° SW 05:16:16 64° SSE 05:24:03 10° E visible
27 Oct - 07:32:50 10° W 07:42:43 79° N 07:48:10 10° E daylight
27 Oct - 10:02:12 10° WNW 10:08:02 73° SSW 10:12:24 10° ESE daylight
27 Oct - 12:30:00 10° WSW 12:32:19 14° SSW 12:34:47 10° S daylight
28 Oct - 01:19:36 10° S 01:34:28 22° SE 01:45:00 10° ESE visible
28 Oct - 03:46:11 10° SW 04:04:00 51° SSE 04:13:22 10° E visible
28 Oct - 06:18:21 10° WSW 06:31:21 90° SSE 06:37:54 10° ENE visible
28 Oct - 08:49:38 10° W 08:57:16 84° N 09:02:01 10° E daylight
28 Oct - 11:17:37 10° W 11:21:47 28° SSW 11:25:38 10° SSE daylight
29 Oct - 00:11:07 10° SSE 00:20:35 14° SE 00:28:35 10° ESE visible
29 Oct - 02:32:14 10° SSW 02:51:07 39° SSE 03:02:05 10° E visible
29 Oct - 05:03:17 10° WSW 05:19:33 75° SSE 05:27:32 10° ENE visible
29 Oct - 07:36:04 10° W 07:46:10 78° N 07:51:41 10° E daylight
29 Oct - 10:05:32 10° W 10:11:21 55° SSW 10:15:41 10° SE daylight
